Tracking 25710 objects as of 6-Jul-2022
HD Live streaming from Space Station
objects crossing your sky now

STARLINK-4020

Track STARLINK-4020 now!
10-day predictions
STARLINK-4020 is classified as:


NORAD ID: 52703
Int'l Code: 2022-053AZ
Perigee: 355.6 km
Apogee: 358.2 km
Inclination: 53.2 °
Period: 91.5 minutes
Semi major axis: 6727 km
RCS: Unknown
Launch date: May 18, 2022
Source: United States (US)
Launch site: AIR FORCE EASTERN TEST RANGE (AFETR)
aabbcc
Your satellite tracking list
Your tracking list is empty




NASA's NSSDC Master Catalog

Two Line Element Set (TLE):
1 52703U 22053AZ  22186.91667824  .00010231  00000-0  77229-4 0  9999
2 52703  53.2152  57.8621 0001893  35.0215 239.0999 15.73199552  7952
Source of the keplerian elements: AFSPC